Погода в Топках

Россия / Кемеровская область (Кузбасс)     55°16′35″N   85°36′54″E
темп.,
°C
ветер,
м/с
пор.,
м/с
влажн.,
%
обл.,
%
осадки,
мм/ч
давл.,
гПа
погр.,
м
17 мая, вт
вт1701:00+16ююз464962 0.0 101189
04:00+14з345859 0.1 101161
07:00+16ююв356642 0.1 1010140
10:00+22ююз464595 0.0 1009562
13:00+26юз79319 0.0 10082803
16:00+26ююз7103175 0.0 10072753
19:00+24ююз6123688 0.0 1006506
22:00+21ю615426 0.0 1006339
18 мая, ср
ср1801:00+20ююз71542100 0.0 1006480
04:00+17юз3755100 0.0 1007125
07:00+17зюз3762100 0.0 1009202
10:00+22з4843100 0.0 1010785
13:00+23з6939100 0.0 10111656
16:00+24з6936100 0.0 10111941
19:00+23з3541100 0.0 1011828
22:00+18зсз1150100 0.0 101211
19 мая, чт
чт1901:00+17в3449100 0.0 101044
04:00+15юв3766100 0.3 1009114
07:00+16вюв4969100 1.1 1007199
10:00+22ююв61049100 0.3 1005441
13:00+28ююз81032100 0.3 10032042
16:00+26юз51038100 0.0 10032252
19:00+21зюз713550 0.2 10041355
22:00+19з811437 0.0 1008939
20 мая, пт
пт2001:00+16юз71339100 0.0 10091531
04:00+12юз715530 0.0 1011729
07:00+12юз815580 0.0 10121063
10:00+17зюз914425 0.0 10141974
13:00+19зюз912345 0.0 10142709
16:00+20зюз911332 0.0 10142422
19:00+19з6113998 0.0 10131530
22:00+14юз3650100 0.0 1014101
21 мая, сб
сб2101:00+12зюз345514 0.0 101442
04:00+11ююз345673 0.0 101358
07:00+13ю485982 0.0 1013187
10:00+20ююв57385 0.0 1011693
13:00+24ююв56310 0.0 10091157
16:00+26юв56295 0.0 10061359
19:00+25вюв47375 0.0 1004464
22:00+19в474986 0.0 100380